This is the latest recevied weather packets stored in our database for station/object KO4FR. If no packets are shown the sender has not sent any weather packets the latest 10 day(s).
| Time | Temp. | Humidity | Pressure | Rain* | Wind** | Luminosity | Snow |
|---|---|---|---|---|---|---|---|
| 1777644890 | 13.89° C | 53% | 1017 hPa | 0 mm | - | - | - |
| 1777644590 | 13.89° C | 53% | 1017.1 hPa | 0 mm | - | - | - |
| 1777644290 | 13.89° C | 53% | 1017 hPa | 0 mm | - | - | - |
| 1777643990 | 13.33° C | 54% | 1017 hPa | 0 mm | - | - | - |
| 1777643690 | 13.33° C | 54% | 1017.1 hPa | 0 mm | - | - | - |
| 1777643390 | 13.33° C | 54% | 1017 hPa | 0 mm | - | - | - |
| 1777643090 | 13.33° C | 57% | 1017 hPa | 0 mm | - | - | - |
| 1777642790 | 12.78° C | 59% | 1017 hPa | 0 mm | - | - | - |
| 1777642492 | 12.78° C | 59% | 1017 hPa | 0 mm | - | - | - |
| 1777642190 | 12.22° C | 62% | 1016.9 hPa | 0 mm | - | - | - |
| 1777641890 | 12.22° C | 61% | 1016.9 hPa | 0 mm | - | - | - |
| 1777641590 | 12.22° C | 62% | 1016.9 hPa | 0 mm | - | - | - |
| 1777641290 | 12.22° C | 64% | 1017 hPa | 0 mm | - | - | - |
| 1777640990 | 11.67° C | 65% | 1016.9 hPa | 0 mm | - | - | - |
| 1777640690 | 11.67° C | 65% | 1017 hPa | 0 mm | - | - | - |
| 1777640390 | 11.11° C | 66% | 1017 hPa | 0 mm | - | - | - |
| 1777640090 | 11.11° C | 67% | 1016.9 hPa | 0 mm | - | - | - |
| 1777639790 | 11.11° C | 67% | 1016.9 hPa | 0 mm | - | - | - |
| 1777639490 | 10.56° C | 68% | 1016.9 hPa | 0 mm | - | - | - |
| 1777639190 | 10.56° C | 68% | 1016.9 hPa | 0 mm | - | - | - |
| 1777638890 | 10° C | 67% | 1016.8 hPa | 0 mm | - | - | - |
| 1777638590 | 8.89° C | 54% | 1016.7 hPa | 0 mm | - | - | - |
| 1777638290 | 8.33° C | 32% | 1016.7 hPa | 0 mm | - | - | - |
| 1777637990 | 8.33° C | 19% | 1016.7 hPa | 0 mm | - | - | - |
| 1777637690 | 7.78° C | 16% | 1016.8 hPa | 0 mm | - | - | - |
* Rain latest hour (hover to see other rain measurements)
** Current wind speed in m/s (hover to see current wind gust speed)